Regional Weather Roundup
Issued by NWS Little Rock, AR

Home | Current Version | Previous Version | Graphics & Text | Print | Product List | Glossary On
Versions: 1 2 3 4 5 6 7 8 9 10 11 12 13 14 15 16 17 18 19 20 21 22 23 24 25 26 27 28 29 30 31 32 33 34 35 36 37 38 39 40 41 42 43 44 45 46 47 48 49 50
000
ASUS44 KLZK 290005
RWRLZK

WEATHER ROUNDUP FOR ARKANSAS
NATIONAL WEATHER SERVICE LITTLE ROCK AR
700 PM CDT MON JUL 28 2014

NOTE: "FAIR" INDICATES FEW OR NO CLOUDS BELOW 12,000 FEET WITH NO
SIGNIFICANT WEATHER AND/OR OBSTRUCTIONS TO VISIBILITY.

ARZ001-003-010-029-290100-
NORTHWEST ARKANSAS

CITY           SKY/WX    TMP DP  RH WIND       PRES   REMARKS
FAYETTEVILLE   MOSUNNY   80  58  46 NW8G18    30.11F
6HR MIN TEMP:  79; 6HR MAX TEMP:  85;

FORT SMITH     PTSUNNY   86  59  39 NW14      30.06F HX  85
6HR MIN TEMP:  86; 6HR MAX TEMP:  90;

HARRISON       SUNNY     80  57  45 N9        30.10F
6HR MIN TEMP:  79; 6HR MAX TEMP:  84;

BENTONVILLE    MOSUNNY   82  57  42 N8        30.13F
6HR MIN TEMP:  79; 6HR MAX TEMP:  84;

ROGERS         SUNNY     81  55  40 N7        30.13F
6HR MIN TEMP:  79; 6HR MAX TEMP:  84;

SILOAM SPGS    MOSUNNY   81  57  44 NW10      30.13F
6HR MIN TEMP:  79; 6HR MAX TEMP:  82;

HIGHFILL       MOSUNNY   81  58  45 NW9       30.12F
6HR MIN TEMP:  81; 6HR MAX TEMP:  86;

SPRINGDALE     MOSUNNY   82  59  44 NW12      30.13F
$$

ARZ004-005-016-290100-
NORTH CENTRAL ARKANSAS

CITY           SKY/WX    TMP DP  RH WIND       PRES   REMARKS
BATESVILLE     MOSUNNY   82  61  47 W6        30.04S
6HR MIN TEMP:  81; 6HR MAX TEMP:  86;

FLIPPIN        MOSUNNY   84  57  39 N8        30.07F
6HR MIN TEMP:  81; 6HR MAX TEMP:  88;

MTN HOME       PTSUNNY   82  58  43 NW8       30.06F
6HR MIN TEMP:  78; 6HR MAX TEMP:  85;

$$

ARZ040-041-290100-
WEST CENTRAL ARKANSAS

CITY           SKY/WX    TMP DP  RH WIND       PRES   REMARKS
MENA           PTSUNNY   82  64  54 CALM      30.09F
MOUNT IDA      MOSUNNY   82  65  56 NW3       30.05F
6HR MIN TEMP:  79; 6HR MAX TEMP:  88;

$$

ARZ009-017-025-026-028-290100-
NORTHEAST ARKANSAS

CITY           SKY/WX    TMP DP  RH WIND       PRES   REMARKS
CORNING        LGT RAIN  82  64  54 N7        30.03S
JONESBORO      SUNNY     82  63  52 NW5       30.02F
6HR MIN TEMP:  80; 6HR MAX TEMP:  85;

NEWPORT        SUNNY     84  65  52 N6        30.03F HX  85
6HR MIN TEMP:  83; 6HR MAX TEMP:  87;

WALNUT RIDGE   SUNNY     82  63  51 N7        30.02F
6HR MIN TEMP:  81; 6HR MAX TEMP:  86;

BLYTHEVILLE    MOSUNNY   79  66  64 N6        30.02F
6HR MIN TEMP:  79; 6HR MAX TEMP:  85;

$$

ARZ022-023-033-042-044-290100-
CENTRAL ARKANSAS

CITY           SKY/WX    TMP DP  RH WIND       PRES   REMARKS
LITTLE ROCK    PTSUNNY   84  60  44 N9        30.03F
6HR MIN TEMP:  84; 6HR MAX TEMP:  89;

N LITTLE ROCK  PTSUNNY   80  66  60 N5        30.03F
6HR MIN TEMP:  80; 6HR MAX TEMP:  85;

JACKSONVILLE   SUNNY     84  64  52 N2        30.03F HX  85
6HR MIN TEMP:  83; 6HR MAX TEMP:  87;

SEARCY         SUNNY     84  63  49 NW7       30.04F HX  85
6HR MIN TEMP:  83; 6HR MAX TEMP:  86;

HOT SPRINGS    PTSUNNY   82  63  52 CALM      30.05F
6HR MIN TEMP:  82; 6HR MAX TEMP:  88;

RUSSELLVILLE   MOSUNNY   86  59  39 N6        30.04F HX  85
6HR MIN TEMP:  84; 6HR MAX TEMP:  90;

CLINTON        FAIR      84  64  51 W3        30.04F HX  86
$$

ARZ036-290100-
EAST ARKANSAS

CITY           SKY/WX    TMP DP  RH WIND       PRES   REMARKS
WEST MEMPHIS   SUNNY     83  65  54 N9        30.01F HX  85
6HR MIN TEMP:  82; 6HR MAX TEMP:  86;

$$

ARZ050-053-066-070-073-290100-
SOUTHWEST ARKANSAS

CITY           SKY/WX    TMP DP  RH WIND       PRES   REMARKS
ARKADELPHIA    FAIR      86  65  49 N8        30.03F HX  88
6HR MIN TEMP:  86; 6HR MAX TEMP:  89;

CAMDEN         MOSUNNY   84  64  51 N3        30.02S HX  86
TEXARKANA      SUNNY     87  67  51 NW3       30.05R HX  90
6HR MIN TEMP:  87; 6HR MAX TEMP:  92;

EL DORADO      MOSUNNY   86  67  52 N5        30.04R HX  89
6HR MIN TEMP:  86; 6HR MAX TEMP:  91;

DE QUEEN       PTSUNNY   83  67  58 N3        30.04S HX  85
6HR MIN TEMP:  83; 6HR MAX TEMP:  90;

$$

ARZ056-057-069-290100-
SOUTHEAST ARKANSAS

CITY           SKY/WX    TMP DP  RH WIND       PRES   REMARKS
PINE BLUFF     MOSUNNY   84  64  50 N8        30.03F HX  85
6HR MIN TEMP:  84; 6HR MAX TEMP:  87;

STUTTGART      SUNNY     82  63  51 N8        30.04S
6HR MIN TEMP:  82; 6HR MAX TEMP:  86;

MONTICELLO     MOSUNNY   83  65  54 CALM      30.02S HX  85
6HR MIN TEMP:  83; 6HR MAX TEMP:  89;


$$





USA.gov is the U.S. government's official web portal to all federal, state and local government web resources and services.